Weather History for Belfast Harbour, United Kingdom

Change the Weather History Date:

Friday, May 24, 2013

  Actual Average Record
Temperature  
Mean Temperature 50 °F -  
Max Temperature 57 °F 59 °F 69 °F (2001)
Min Temperature 42 °F 48 °F 39 °F (2006)
Degree Days  
Heating Degree Days 16    
Moisture  
Dew Point 36 °F    
Average Humidity 56    
Maximum Humidity 76    
Minimum Humidity 41    
Precipitation  
Precipitation 0.00 in - - ()
Sea Level Pressure  
Sea Level Pressure 30.11 in    
Wind  
Wind Speed 13 mph ()    
Max Wind Speed 18 mph    
Max Gust Speed -    
Visibility 6.2 miles    
Events      
Averages and records for this station are not official NWS values.
T = Trace of Precipitation, MM = Missing Value Source: Averaged Metar Reports

Daily Weather History Graph

Daily Weather History Graph

Search for Another Location

Airport:

Trip Planner

Search our weather history database for the weather conditions in past years. The results will help you decide how hot, cold, wet, or windy it might be!

Date:

Astronomy

May. 24, 2013 Rise Set
Actual Time 5:03 AM IST 9:37 PM IST
Civil Twilight 4:13 AM IST 10:28 PM IST
Nautical Twilight 2:53 AM IST 11:49 PM IST
Astronomical Twilight Sun does not rise Sun does not rise
Moon 8:57 PM IST (5/24) 4:36 AM IST (5/24)
Length of Visible Light 18h 14m
Length of Day
16h 34m
Waxing Gibbous, 99% of the Moon is Illuminated
May 24
Waxing Gibbous
May 25
Full
May 31
Last Quarter
Jun 8
New
Jun 16
First Quarter

Hourly Weather History & Observations

Time (IST) Temp. Windchill Dew Point Humidity Pressure Visibility Wind Dir Wind Speed Gust Speed Precip Events Conditions
6:20 AM 42.8 °F 35.8 °F 35.6 °F 76% 30.04 in 6.2 mi North 13.8 mph - N/A   Scattered Clouds
6:50 AM 44.6 °F 37.8 °F 35.6 °F 71% 30.04 in 6.2 mi NNW 15.0 mph - N/A   Scattered Clouds
7:20 AM 44.6 °F 37.4 °F 35.6 °F 71% 30.04 in 6.2 mi North 16.1 mph - N/A   Scattered Clouds
7:50 AM 46.4 °F 39.5 °F 35.6 °F 66% 30.04 in 6.2 mi North 17.3 mph - N/A   Partly Cloudy
8:20 AM 46.4 °F 39.8 °F 35.6 °F 66% 30.04 in 6.2 mi NNW 16.1 mph - N/A   Partly Cloudy
8:50 AM 48.2 °F - 37.4 °F 66% 30.06 in 6.2 mi NNW 13.8 mph - N/A   Partly Cloudy
9:20 AM 48.2 °F - 37.4 °F 66% 30.06 in 6.2 mi NNW 16.1 mph - N/A   Partly Cloudy
9:50 AM 48.2 °F - 35.6 °F 62% 30.06 in 6.2 mi North 17.3 mph - N/A   Partly Cloudy
10:20 AM 50.0 °F - 35.6 °F 58% 30.06 in 6.2 mi North 17.3 mph - N/A   Partly Cloudy
10:50 AM 51.8 °F - 35.6 °F 54% 30.09 in 6.2 mi North 17.3 mph - N/A   Partly Cloudy
11:20 AM 51.8 °F - 35.6 °F 54% 30.09 in 6.2 mi North 17.3 mph - N/A   Partly Cloudy
11:50 AM 53.6 °F - 37.4 °F 54% 30.09 in 6.2 mi North 18.4 mph - N/A   Partly Cloudy
12:20 PM 53.6 °F - 37.4 °F 54% 30.09 in 6.2 mi North 18.4 mph - N/A   Partly Cloudy
12:50 PM 53.6 °F - 35.6 °F 51% 30.09 in 6.2 mi North 17.3 mph - N/A   Partly Cloudy
1:20 PM 53.6 °F - 35.6 °F 51% 30.09 in 6.2 mi North 18.4 mph - N/A   Partly Cloudy
1:50 PM 57.2 °F - 37.4 °F 48% 30.09 in 6.2 mi North 18.4 mph - N/A   Partly Cloudy
2:20 PM 55.4 °F - 37.4 °F 51% 30.09 in 6.2 mi North 16.1 mph - N/A   Partly Cloudy
2:50 PM 57.2 °F - 35.6 °F 44% 30.12 in 6.2 mi North 16.1 mph - N/A   Partly Cloudy
3:20 PM 57.2 °F - 35.6 °F 44% 30.12 in 6.2 mi North 13.8 mph - N/A   Partly Cloudy
3:50 PM 57.2 °F - 33.8 °F 41% 30.12 in 6.2 mi North 16.1 mph - N/A   Partly Cloudy
4:20 PM 57.2 °F - 33.8 °F 41% 30.12 in 6.2 mi North 13.8 mph - N/A   Partly Cloudy
4:50 PM 57.2 °F - 33.8 °F 41% 30.12 in 6.2 mi NNE 16.1 mph - N/A   Partly Cloudy
5:20 PM 57.2 °F - 35.6 °F 44% 30.15 in 6.2 mi NNE 13.8 mph - N/A   Partly Cloudy
5:50 PM 57.2 °F - 35.6 °F 44% 30.15 in 6.2 mi North 13.8 mph - N/A   Partly Cloudy
6:20 PM 57.2 °F - 33.8 °F 41% 30.15 in 6.2 mi North 13.8 mph - N/A   Partly Cloudy
6:50 PM 57.2 °F - 35.6 °F 44% 30.15 in - North 12.7 mph - N/A   Clear
7:20 PM 55.4 °F - 35.6 °F 47% 30.15 in - NNE 12.7 mph - N/A   Clear
7:50 PM 55.4 °F - 37.4 °F 51% 30.18 in - NNE 10.4 mph - N/A   Clear
8:20 PM 53.6 °F - 37.4 °F 54% 30.18 in - NNE 8.1 mph - N/A   Clear
8:50 PM 50.0 °F - 39.2 °F 66% 30.18 in - NNE 8.1 mph - N/A   Clear
9:20 PM 48.2 °F - 39.2 °F 71% 30.18 in - NNE 6.9 mph - N/A   Clear
9:50 PM 46.4 °F 42.4 °F 37.4 °F 71% 30.18 in - NNE 8.1 mph - N/A   Clear
10:20 PM 48.2 °F - 37.4 °F 66% 30.21 in - ENE 4.6 mph - N/A   Clear
10:50 PM 48.2 °F - 37.4 °F 66% 30.21 in - Calm Calm - N/A   Clear